TimeEST,TemperatureF,Dew PointF,Humidity,Sea Level PressureIn,VisibilityMPH,Wind Direction,Wind SpeedMPH,Gust SpeedMPH,PrecipitationIn,Events,Conditions,WindDirDegrees,DateUTC
12:17 AM,-9.4,-16.6,71,30.44,10.0,Calm,Calm,-,N/A,,Clear,0,2009-01-17 05:17:00
12:37 AM,-9.4,-14.8,77,30.42,10.0,South,3.5,-,N/A,,Clear,170,2009-01-17 05:37:00
12:55 AM,-9.4,-16.6,71,30.42,10.0,South,4.6,-,N/A,,Clear,180,2009-01-17 05:55:00
1:18 AM,-9.4,-14.8,77,30.41,10.0,South,4.6,-,N/A,,Clear,180,2009-01-17 06:18:00
1:37 AM,-9.4,-14.8,77,30.39,10.0,South,6.9,-,N/A,,Clear,180,2009-01-17 06:37:00
1:55 AM,-9.4,-14.8,77,30.38,10.0,South,5.8,-,N/A,,Clear,180,2009-01-17 06:55:00
2:17 AM,-7.6,-14.8,71,30.36,10.0,SSW,3.5,-,N/A,,Clear,200,2009-01-17 07:17:00
2:55 AM,-7.6,-14.8,71,30.34,10.0,South,5.8,-,N/A,,Clear,190,2009-01-17 07:55:00
3:17 AM,-4.0,-13.0,65,30.32,10.0,South,9.2,-,N/A,,Clear,180,2009-01-17 08:17:00
3:37 AM,-0.4,-11.2,60,30.31,10.0,South,10.4,-,N/A,,Clear,180,2009-01-17 08:37:00
3:55 AM,-0.4,-11.2,60,30.30,10.0,South,10.4,-,N/A,,Clear,190,2009-01-17 08:55:00
4:17 AM,-0.4,-9.4,66,30.28,10.0,South,9.2,-,N/A,,Clear,180,2009-01-17 09:17:00
4:37 AM,1.4,-9.4,61,30.26,10.0,South,10.4,-,N/A,,Clear,180,2009-01-17 09:37:00
5:18 AM,3.2,-7.6,61,30.22,10.0,South,11.5,-,N/A,,Mostly Cloudy,180,2009-01-17 10:18:00
5:38 AM,5.0,-7.6,56,30.20,10.0,South,15.0,-,N/A,,Overcast,190,2009-01-17 10:38:00
5:55 AM,5.0,-7.6,56,30.19,10.0,South,12.7,-,N/A,,Overcast,180,2009-01-17 10:55:00
6:18 AM,5.0,-5.8,61,30.17,10.0,South,15.0,18.4,N/A,,Overcast,190,2009-01-17 11:18:00
6:37 AM,6.8,-4.0,61,30.15,10.0,South,15.0,-,N/A,,Overcast,190,2009-01-17 11:37:00
6:55 AM,8.6,-4.0,57,30.15,10.0,South,15.0,19.6,N/A,Snow,Light Snow,190,2009-01-17 11:55:00
7:18 AM,8.6,-2.2,62,30.13,4.0,SSW,16.1,20.7,N/A,Snow,Light Snow,200,2009-01-17 12:18:00
7:38 AM,6.8,1.4,79,30.12,2.5,South,18.4,21.9,N/A,Snow,Light Snow,190,2009-01-17 12:38:00
7:55 AM,6.8,1.4,79,30.10,1.8,South,17.3,-,N/A,Snow,Light Snow,190,2009-01-17 12:55:00
8:18 AM,8.6,3.2,79,30.07,3.0,South,17.3,24.2,N/A,Snow,Light Snow,180,2009-01-17 13:18:00
8:38 AM,8.6,3.2,79,30.06,1.8,South,11.5,-,N/A,Snow,Light Snow,180,2009-01-17 13:38:00
8:55 AM,8.6,5.0,85,30.05,2.5,South,13.8,-,N/A,Snow,Light Snow,180,2009-01-17 13:55:00
9:18 AM,8.6,5.0,85,30.03,1.2,South,10.4,-,N/A,Snow,Light Snow,170,2009-01-17 14:18:00
9:55 AM,10.4,6.8,85,29.99,10.0,SSE,9.2,-,N/A,,Overcast,160,2009-01-17 14:55:00
10:18 AM,12.2,6.8,79,29.97,4.0,South,16.1,-,N/A,Snow,Light Snow,180,2009-01-17 15:18:00
10:38 AM,12.2,8.6,85,29.95,1.2,South,13.8,23.0,N/A,Snow,Light Snow,180,2009-01-17 15:38:00
10:55 AM,14.0,10.4,86,29.93,1.2,South,16.1,23.0,N/A,Snow,Light Snow,190,2009-01-17 15:55:00
11:19 AM,14.0,10.4,86,29.91,1.0,South,15.0,19.6,N/A,Snow,Light Snow,190,2009-01-17 16:19:00
11:39 AM,14.0,10.4,86,29.89,1.8,South,17.3,20.7,N/A,Snow,Light Snow,180,2009-01-17 16:39:00
11:55 AM,14.0,10.4,86,29.88,10.0,South,15.0,-,N/A,,Overcast,180,2009-01-17 16:55:00
12:19 PM,15.8,8.6,73,29.87,10.0,SSW,12.7,20.7,N/A,,Overcast,200,2009-01-17 17:19:00
12:39 PM,17.6,8.6,68,29.84,10.0,SSW,12.7,-,N/A,,Overcast,200,2009-01-17 17:39:00
12:55 PM,17.6,8.6,68,29.82,5.0,South,13.8,19.6,N/A,Snow,Light Snow,190,2009-01-17 17:55:00
1:19 PM,17.6,10.4,73,29.79,7.0,SSW,19.6,24.2,N/A,Snow,Light Snow,200,2009-01-17 18:19:00
1:39 PM,19.4,10.4,68,29.76,10.0,South,15.0,-,N/A,,Overcast,190,2009-01-17 18:39:00
1:55 PM,19.4,10.4,68,29.75,10.0,South,15.0,24.2,N/A,,Scattered Clouds,190,2009-01-17 18:55:00
2:19 PM,19.4,10.4,68,29.74,10.0,SSW,15.0,18.4,N/A,,Overcast,200,2009-01-17 19:19:00
2:55 PM,21.2,12.2,68,29.70,10.0,South,11.5,18.4,N/A,,Overcast,190,2009-01-17 19:55:00
3:18 PM,21.2,12.2,68,29.70,10.0,SSW,15.0,20.7,N/A,,Overcast,210,2009-01-17 20:18:00
3:55 PM,23.0,14.0,68,29.69,10.0,SSW,11.5,-,N/A,,Overcast,210,2009-01-17 20:55:00
4:19 PM,23.0,14.0,68,29.69,7.0,SSW,15.0,-,N/A,Snow,Light Snow,210,2009-01-17 21:19:00
4:39 PM,23.0,17.6,80,29.68,4.0,SSW,15.0,18.4,N/A,Snow,Light Snow,210,2009-01-17 21:39:00
4:55 PM,23.0,17.6,80,29.68,5.0,SSW,13.8,19.6,N/A,Snow,Light Snow,210,2009-01-17 21:55:00
5:19 PM,23.0,19.4,86,29.67,2.5,SSW,10.4,-,N/A,Snow,Light Snow,210,2009-01-17 22:19:00
5:39 PM,23.0,19.4,86,29.67,0.8,SSW,11.5,-,N/A,Snow,Light Snow,210,2009-01-17 22:39:00
5:55 PM,23.0,21.2,93,29.67,1.2,SSW,9.2,-,N/A,Snow,Light Snow,210,2009-01-17 22:55:00
6:19 PM,23.0,21.2,93,29.66,1.0,SSW,9.2,-,N/A,Snow,Snow,210,2009-01-17 23:19:00
6:39 PM,23.0,23.0,100,29.66,4.0,SSW,8.1,-,N/A,Snow,Light Snow,210,2009-01-17 23:39:00
6:55 PM,23.0,23.0,100,29.67,7.0,SW,8.1,-,N/A,,Overcast,220,2009-01-17 23:55:00
7:19 PM,24.8,23.0,93,29.66,7.0,SW,6.9,-,N/A,Snow,Light Snow,230,2009-01-18 00:19:00
7:39 PM,26.6,23.0,86,29.66,7.0,WSW,9.2,-,N/A,Snow,Light Snow,240,2009-01-18 00:39:00
7:55 PM,26.6,23.0,86,29.65,10.0,WSW,10.4,16.1,N/A,Snow,Light Snow,240,2009-01-18 00:55:00
8:19 PM,26.6,21.2,80,29.65,7.0,West,12.7,23.0,N/A,Snow,Light Snow,260,2009-01-18 01:19:00
8:38 PM,26.6,21.2,80,29.66,5.0,WSW,12.7,21.9,N/A,Snow,Light Snow,250,2009-01-18 01:38:00
8:55 PM,24.8,21.2,86,29.66,3.0,WSW,10.4,18.4,N/A,Snow,Light Snow,250,2009-01-18 01:55:00
9:19 PM,24.8,21.2,86,29.66,2.5,WSW,10.4,-,N/A,Snow,Light Snow,250,2009-01-18 02:19:00
9:55 PM,23.0,21.2,93,29.67,1.2,WSW,6.9,-,N/A,Snow,Light Snow,250,2009-01-18 02:55:00
10:19 PM,23.0,21.2,93,29.67,3.0,West,9.2,-,N/A,Snow,Light Snow,260,2009-01-18 03:19:00
10:36 PM,23.0,21.2,93,29.67,3.0,West,6.9,-,N/A,Snow,Light Snow,260,2009-01-18 03:36:00
10:55 PM,23.0,21.2,93,29.67,4.0,West,8.1,-,N/A,Snow,Light Snow,260,2009-01-18 03:55:00
11:19 PM,23.0,21.2,93,29.67,3.0,WSW,5.8,-,N/A,Snow,Light Snow,250,2009-01-18 04:19:00
11:39 PM,23.0,21.2,93,29.67,3.0,WSW,5.8,-,N/A,Snow,Light Snow,250,2009-01-18 04:39:00
11:55 PM,23.0,21.2,93,29.66,3.0,WSW,4.6,-,N/A,Snow,Light Snow,240,2009-01-18 04:55:00